Sioux Falls, SD

12:02 PM CDT on May 24, 2017 (GMT -0500)
Foss

Weather History for KFSD - May, 2014

Change the Weather History Date:

Tuesday, May 13, 2014

  Actual Average Record
Temperature  
Mean Temperature 47 °F 57 °F  
Max Temperature 58 °F 69 °F 92 °F (1987)
Min Temperature 36 °F 45 °F 24 °F (1997)
Degree Days  
Heating Degree Days 18 9  
Month to date heating degree days 165 136  
Since 1 July heating degree days 8183 7543  
Cooling Degree Days 0 1  
Month to date cooling degree days 0 9  
Year to date cooling degree days 0 14  
Moisture  
Dew Point 35 °F    
Average Humidity 66    
Maximum Humidity 92    
Minimum Humidity 40    
Precipitation  
Precipitation 0.00 in 0.11 in 1.70 in (1957)
Month to date precipitation 1.02 1.37  
Year to date precipitation 3.89 7.30  
Snow  
Snow 0.00 in 0.00 in - ()
Month to date snowfall 0.0 0.4  
Since 1 July snowfall 45.3 44.9  
Snow Depth 0.00 in    
Sea Level Pressure  
Sea Level Pressure 30.18 in    
Wind  
Wind Speed 13 mph (NW)    
Max Wind Speed 25 mph    
Max Gust Speed 33 mph    
Visibility 10 miles    
Events      
T = Trace of Precipitation, MM = Missing Value Source: NWS Daily Summary

Daily Weather History Graph

Daily Weather History Graph

Search for Another Location

Airport or City:

Trip Planner

Search our weather history database for the weather conditions in past years. The results will help you decide how hot, cold, wet, or windy it might be!

Date:

Astronomy

May. 13, 2014 Rise Set
Actual Time 6:04 AM CDT 8:43 PM CDT
Civil Twilight 5:31 AM CDT 9:15 PM CDT
Nautical Twilight 4:50 AM CDT 9:57 PM CDT
Astronomical Twilight 4:03 AM CDT 10:44 PM CDT
Moon 7:43 PM CDT (5/13) 5:24 AM CDT (5/13)
Length of Visible Light 15h 44m
Length of Day
14h 38m
Waxing Gibbous, 99% of the Moon is Illuminated
May 13
Waxing Gibbous
May 14
Full
May 21
Last Quarter
May 28
New
Jun 5
First Quarter

Hourly Weather History & Observations

Time (CDT) Temp. Windchill Dew Point Humidity Pressure Visibility Wind Dir Wind Speed Gust Speed Precip Events Conditions
12:33 AM 43.0 °F 36.0 °F 39.0 °F 86% 30.02 in 10.0 mi NNW 13.8 mph - N/A   Scattered Clouds
12:56 AM 42.8 °F 34.5 °F 39.2 °F 87% 30.03 in 10.0 mi NW 18.4 mph - N/A   Partly Cloudy
1:56 AM 41.0 °F 33.5 °F 37.0 °F 86% 30.09 in 10.0 mi NW 13.8 mph - N/A   Clear
2:56 AM 39.9 °F 32.5 °F 37.0 °F 89% 30.09 in 10.0 mi NW 12.7 mph - N/A   Clear
3:56 AM 39.9 °F 31.8 °F 36.0 °F 86% 30.10 in 10.0 mi NW 15.0 mph - N/A   Clear
4:56 AM 39.0 °F 31.0 °F 35.1 °F 86% 30.11 in 10.0 mi NW 13.8 mph - N/A   Clear
5:56 AM 37.9 °F 28.9 °F 34.0 °F 86% 30.12 in 10.0 mi WNW 16.1 mph - N/A   Partly Cloudy
6:56 AM 39.0 °F 30.6 °F 33.1 °F 79% 30.14 in 10.0 mi NW 15.0 mph - N/A   Partly Cloudy
7:56 AM 42.8 °F 36.6 °F 35.6 °F 76% 30.13 in 10.0 mi NW 11.5 mph - N/A   Partly Cloudy
10:56 AM 51.8 °F - 37.4 °F 58% 30.17 in 10.0 mi NW 20.7 mph 27.6 mph N/A   Scattered Clouds
11:56 AM 50.0 °F - 33.1 °F 52% 30.22 in 10.0 mi NNW 19.6 mph 26.5 mph N/A   Mostly Cloudy
12:56 PM 51.1 °F - 33.1 °F 50% 30.23 in 10.0 mi NW 23.0 mph 27.6 mph N/A   Mostly Cloudy
1:56 PM 52.0 °F - 35.1 °F 53% 30.25 in 10.0 mi NW 13.8 mph 23.0 mph N/A   Overcast
2:56 PM 51.1 °F - 33.1 °F 50% 30.25 in 10.0 mi NW 18.4 mph - N/A   Mostly Cloudy
3:56 PM 55.9 °F - 33.1 °F 42% 30.23 in 10.0 mi NW 15.0 mph 26.5 mph N/A   Mostly Cloudy
4:56 PM 57.0 °F - 34.0 °F 42% 30.23 in 10.0 mi NW 20.7 mph 25.3 mph N/A   Mostly Cloudy
5:56 PM 55.0 °F - 32.0 °F 42% 30.23 in 10.0 mi NW 19.6 mph 25.3 mph N/A   Mostly Cloudy
6:56 PM 54.0 °F - 32.0 °F 43% 30.23 in 10.0 mi NNW 13.8 mph - N/A   Mostly Cloudy
7:56 PM 50.0 °F - 33.8 °F 54% 30.21 in 10.0 mi NNW 9.2 mph - N/A   Partly Cloudy
8:56 PM 44.1 °F 41.5 °F 33.1 °F 65% 30.26 in 10.0 mi NW 4.6 mph - N/A   Partly Cloudy
9:56 PM 42.1 °F 40.2 °F 33.1 °F 70% 30.27 in 10.0 mi West 3.5 mph - N/A   Clear
10:56 PM 42.1 °F 40.2 °F 34.0 °F 73% 30.27 in 10.0 mi SSW 3.5 mph - N/A   Clear
11:56 PM 37.0 °F - 32.0 °F 82% 30.28 in 10.0 mi Calm Calm - N/A   Clear